FW5884 Weather Reports


time (UTC)temp
C
wind
direction
speed
KPH
gust
KPH
rain 1hr
cm
rain 24hr
cm
rain mn
cm
humidity
%
barometer
mb
20260506215545 14 120 0.0 0.0 0.00 2.24 2.24 92 1011.6
20260506215043 14 120 0.0 0.0 0.00 2.24 2.24 92 1011.7
20260506214545 14 120 0.0 0.0 0.00 2.24 2.24 92 1011.7
20260506214042 14 120 0.0 0.0 0.00 2.24 2.24 92 1011.6
20260506213543 14 120 0.0 0.0 0.00 2.24 2.24 92 1011.5
20260506213042 14 120 0.0 0.0 0.00 2.24 2.24 92 1011.5
20260506212544 14 119 0.0 0.0 0.00 2.24 2.24 92 1011.5
20260506212044 14 120 0.0 0.0 0.00 2.24 2.24 92 1011.5
20260506211542 14 120 0.0 0.0 0.00 2.24 2.24 92 1011.5
20260506211041 14 120 0.0 1.6 0.00 2.24 2.24 93 1011.6
20260506210544 14 120 0.0 1.6 0.00 2.24 2.24 94 1011.7
20260506210048 15 120 0.0 1.6 0.00 2.24 2.24 94 1011.6
20260506205541 15 120 0.0 0.0 0.00 2.24 2.24 94 1011.6
20260506205043 15 120 0.0 0.0 0.00 2.24 2.24 94 1011.5
20260506204542 15 120 0.0 0.0 0.00 2.24 2.24 94 1011.6
20260506204041 15 120 0.0 0.0 0.00 2.24 2.24 94 1011.6
20260506203540 15 120 0.0 0.0 0.00 2.24 2.24 94 1011.6
20260506203048 15 120 0.0 0.0 0.00 2.24 2.24 94 1011.6
20260506202540 15 120 0.0 0.0 0.00 2.24 2.24 94 1011.5
20260506202040 15 120 0.0 0.0 0.00 2.24 2.24 94 1011.6
20260506201554 15 120 0.0 0.0 0.00 2.24 2.24 94 1011.5
20260506201040 15 120 0.0 0.0 0.00 2.24 2.24 94 1011.5
20260506200539 15 120 0.0 0.0 0.00 2.24 2.24 94 1011.5
20260506200039 15 120 0.0 0.0 0.00 2.24 2.24 93 1011.5
20260506195540 15 120 0.0 0.0 0.00 2.24 2.24 93 1011.2
20260506195041 15 121 0.0 0.0 0.00 2.24 2.24 93 1011.3
20260506194548 15 120 0.0 0.0 0.00 2.24 2.24 93 1011.3
20260506194040 15 162 0.0 1.6 0.00 2.24 2.24 93 1011.2
20260506193540 15 85 0.0 4.8 0.00 2.24 2.24 94 1011.0
20260506193044 15 129 0.0 4.8 0.00 2.24 2.24 94 1011.0
20260506192538 15 102 0.0 1.6 0.00 2.24 2.24 94 1010.9
20260506192040 15 102 0.0 1.6 0.00 2.24 2.24 94 1010.8
20260506191542 15 105 0.0 0.0 0.00 2.24 2.24 94 1010.7
20260506191038 15 105 0.0 0.0 0.00 2.24 2.24 94 1010.6
20260506190537 15 105 0.0 0.0 0.00 2.24 2.24 93 1010.5
20260506190038 15 105 0.0 0.0 0.00 2.24 2.24 93 1010.4
20260506185537 15 105 0.0 4.8 0.00 2.24 2.24 93 1010.2
20260506185037 15 105 0.0 4.8 0.00 2.24 2.24 93 1010.3
20260506184547 15 129 0.0 1.6 0.00 2.24 2.24 94 1010.2
20260506184037 15 129 0.0 3.2 0.00 2.24 2.24 94 1010.0
20260506183539 15 155 0.0 3.2 0.00 2.24 2.24 94 1010.1
20260506183040 15 127 0.0 3.2 0.00 2.24 2.24 94 1010.1
20260506182536 15 113 0.0 6.4 0.00 2.24 2.24 95 1010.1
20260506182036 15 137 0.0 1.6 0.00 2.24 2.24 95 1010.1
20260506181536 15 96 0.0 0.0 0.00 2.24 2.24 95 1010.2
20260506181035 15 96 0.0 0.0 0.00 2.24 2.24 94 1010.1
20260506180537 15 125 0.0 0.0 0.00 2.24 2.24 94 1010.2
20260506180036 16 125 0.0 0.0 0.00 2.24 2.24 94 1010.1
20260506175536 16 90 0.0 0.0 0.15 2.24 2.24 94 1010.1
20260506175035 16 87 0.0 0.0 0.41 2.24 2.24 94 1010.1
20260506174535 16 87 0.0 0.0 0.41 2.24 2.24 94 1010.1
20260506174035 16 87 0.0 0.0 0.41 2.24 2.24 94 1010.1
20260506173538 16 82 0.0 0.0 0.41 2.24 2.24 94 1010.2
20260506173040 16 82 0.0 0.0 0.41 2.24 2.24 93 1010.1
20260506172534 16 114 0.0 0.0 0.41 2.24 2.24 93 1010.1
20260506172034 16 117 0.0 0.0 0.41 2.24 2.24 92 1010.0
20260506171544 16 117 0.0 0.0 0.41 2.24 2.24 92 1010.0
20260506171035 16 117 0.0 1.6 0.41 2.24 2.24 91 1009.8
20260506170533 16 77 0.0 6.4 0.41 2.24 2.24 91 1009.7
20260506170034 16 150 0.0 6.4 0.41 2.24 2.24 89 1009.8
20260506165535 17 158 0.0 6.4 0.15 2.03 1.98 86 1009.9
20260506165033 17 107 0.0 3.2 0.00 1.91 1.83 85 1009.2
20260506164533 17 92 0.0 8.0 0.00 1.91 1.83 84 1008.9
20260506164031 17 133 0.0 8.0 0.00 1.91 1.83 84 1008.9
20260506163532 17 109 0.0 4.8 0.00 1.91 1.83 84 1009.0
20260506163039 17 155 0.0 9.7 0.00 1.91 1.83 84 1009.2
20260506162532 17 137 1.6 9.7 0.00 1.91 1.83 84 1009.3
20260506162032 17 104 0.0 4.8 0.00 1.91 1.83 84 1009.5
20260506161532 18 165 0.0 1.6 0.00 1.91 1.83 85 1009.6
20260506161027 18 135 0.0 1.6 0.00 1.91 1.83 86 1009.6
20260506160535 18 101 0.0 0.0 0.00 1.91 1.83 87 1009.6
20260506160030 18 101 0.0 0.0 0.00 1.91 1.83 87 1009.6
20260506155526 17 154 0.0 0.0 0.00 2.03 1.83 86 1009.7
20260506155025 17 77 0.0 4.8 0.00 2.03 1.83 88 1009.6
20260506154531 17 133 0.0 4.8 0.00 2.03 1.83 88 1009.7
20260506154026 17 171 0.0 4.8 0.00 2.03 1.83 88 1009.7
20260506153524 17 123 0.0 4.8 0.00 2.03 1.83 87 1009.7
20260506153022 17 167 0.0 1.6 0.00 2.03 1.83 89 1009.7
20260506152525 17 101 0.0 4.8 0.00 2.03 1.83 89 1009.9
20260506152020 17 148 0.0 4.8 0.00 2.03 1.83 89 1010.0
20260506151521 17 159 0.0 1.6 0.00 2.03 1.83 89 1010.1
20260506151022 17 86 0.0 0.0 0.00 2.03 1.83 89 1010.1
20260506150519 17 109 0.0 0.0 0.00 2.03 1.83 91 1010.3
20260506150019 17 108 0.0 4.8 0.00 2.03 1.83 90 1010.4
20260506145518 17 129 0.0 0.0 0.00 2.11 1.83 93 1010.4
20260506145016 17 129 0.0 1.6 0.00 2.11 1.83 93 1010.4
20260506144516 16 110 0.0 1.6 0.00 2.11 1.83 95 1010.5
20260506144014 16 316 0.0 0.0 0.00 2.11 1.83 95 1010.5
20260506143513 16 359 0.0 0.0 0.00 2.11 1.83 95 1010.6
20260506143016 16 112 0.0 0.0 0.00 2.11 1.83 95 1010.6
20260506142510 15 111 0.0 0.0 0.00 2.11 1.83 95 1010.7
20260506142011 15 111 0.0 0.0 0.00 2.11 1.83 95 1010.6
20260506141510 15 111 0.0 0.0 0.00 2.11 1.83 94 1010.7
20260506141009 15 112 0.0 0.0 0.00 2.11 1.83 94 1010.7
20260506140511 15 113 0.0 0.0 0.00 2.11 1.83 94 1010.7
20260506140008 15 113 0.0 0.0 0.00 2.11 1.83 94 1010.7
20260506135510 15 113 0.0 0.0 0.00 2.11 1.83 94 1010.8
20260506135008 15 113 0.0 0.0 0.00 2.11 1.83 94 1010.8
20260506134508 15 113 0.0 0.0 0.00 2.11 1.83 93 1010.9
20260506134007 15 94 0.0 0.0 0.00 2.11 1.83 93 1011.0
20260506133507 15 92 0.0 0.0 0.00 2.11 1.83 93 1011.0
20260506133006 15 92 0.0 0.0 0.00 2.11 1.83 93 1011.0
20260506132505 15 92 0.0 0.0 0.03 2.11 1.83 93 1011.1
20260506132005 15 92 0.0 0.0 0.03 2.11 1.83 93 1011.2
20260506131505 15 72 0.0 0.0 0.03 2.11 1.83 93 1011.2
20260506131005 15 134 0.0 0.0 0.03 2.11 1.83 93 1011.3
20260506130508 15 153 0.0 4.8 0.03 2.11 1.83 93 1011.4
20260506130006 15 152 0.0 4.8 0.03 2.13 1.83 93 1011.3
20260506125503 15 137 0.0 3.2 0.03 2.13 1.83 93 1011.5
20260506125005 15 110 0.0 1.6 0.05 2.13 1.83 93 1011.6
20260506124503 15 106 0.0 3.2 0.08 2.13 1.83 94 1011.7
20260506124005 15 143 0.0 6.4 0.08 2.13 1.83 94 1011.6
20260506123504 15 124 1.6 6.4 0.08 2.13 1.83 94 1011.6
20260506123002 15 155 0.0 9.7 0.08 2.13 1.83 94 1011.5
20260506122502 15 98 1.6 9.7 0.05 2.11 1.83 94 1011.5
20260506122001 15 98 0.0 4.8 0.05 2.11 1.83 94 1011.5
20260506121607 15 134 0.0 4.8 0.05 2.11 1.83 94 1011.4
20260506121500 15 151 0.0 4.8 0.05 2.11 1.83 94 1011.4
20260506121001 15 113 0.0 3.2 0.05 2.11 1.83 94 1011.5
20260506120600 15 136 0.0 0.0 0.05 2.11 1.83 94 1011.4
20260506120111 15 152 0.0 3.2 0.05 2.11 1.83 94 1011.5
20260506115601 15 153 0.0 3.2 0.05 2.21 1.83 94 1011.5
20260506115059 15 151 0.0 4.8 0.05 2.18 1.80 94 1011.6
20260506114621 15 148 0.0 4.8 0.03 2.16 1.78 93 1011.4
20260506114059 15 146 0.0 6.4 0.00 2.13 1.75 93 1011.5
20260506113701 15 122 0.0 6.4 0.00 2.13 1.75 93 1011.5
20260506113100 15 127 0.0 6.4 0.00 2.13 1.75 93 1011.5
20260506112601 15 92 0.0 6.4 0.00 2.13 1.75 93 1011.5
20260506112058 15 120 0.0 11.3 0.00 2.13 1.75 93 1011.5
20260506111558 15 63 0.0 8.0 0.00 2.13 1.75 93 1011.5
20260506111058 15 120 0.0 6.4 0.03 2.13 1.75 94 1011.5
20260506110601 15 156 1.6 9.7 0.03 2.13 1.75 93 1011.5
20260506110057 15 138 1.6 9.7 0.03 2.13 1.75 94 1011.5
20260506105601 15 73 0.0 6.4 0.03 2.16 1.75 94 1011.5
20260506105056 15 134 0.0 6.4 0.03 2.16 1.75 95 1011.5
20260506104557 15 153 0.0 1.6 0.03 2.16 1.75 95 1011.5
20260506104055 15 101 0.0 1.6 0.08 2.16 1.75 95 1011.5
20260506103555 14 146 0.0 8.0 0.18 2.16 1.75 95 1011.6
20260506103055 14 82 1.6 8.0 0.20 2.16 1.75 95 1011.8
20260506102553 14 146 0.0 8.0 0.23 2.16 1.75 95 1011.7
20260506102052 14 127 1.6 8.0 0.25 2.16 1.75 95 1011.8
20260506101552 14 134 0.0 3.2 0.28 2.16 1.75 95 1012.0
20260506101053 14 134 0.0 3.2 0.28 2.13 1.75 95 1012.1
20260506100552 14 128 0.0 9.7 0.28 2.13 1.75 95 1011.9
20260506100052 14 118 0.0 9.7 0.28 2.13 1.75 95 1012.0
20260506095552 14 129 0.0 4.8 0.28 2.16 1.75 95 1012.0
20260506095052 14 149 0.0 3.2 0.28 2.16 1.75 95 1012.0
20260506094552 14 132 0.0 3.2 0.28 2.16 1.75 95 1012.1
20260506094051 14 115 0.0 1.6 0.20 2.08 1.65 95 1012.1
20260506093550 14 124 0.0 6.4 0.15 2.01 1.57 95 1012.0
20260506093107 14 157 0.0 3.2 0.13 1.98 1.55 95 1012.1
20260506092549 14 146 0.0 6.4 0.13 1.96 1.55 95 1012.1
20260506092049 15 150 0.0 6.4 0.08 1.93 1.50 95 1012.1
20260506091549 15 154 0.0 3.2 0.05 1.88 1.42 95 1012.2
20260506091049 15 98 0.0 3.2 0.08 1.88 1.42 95 1012.1
20260506090548 15 116 0.0 8.0 0.15 1.88 1.42 96 1012.0
20260506090055 15 120 0.0 8.0 0.18 1.88 1.42 95 1011.9
20260506085547 15 127 0.0 4.8 0.23 1.88 1.42 96 1011.9
20260506085047 15 129 0.0 6.4 0.23 1.88 1.42 96 1011.9
20260506084546 15 89 1.6 6.4 0.25 1.88 1.42 96 1011.9
20260506084045 14 113 0.0 3.2 0.28 1.88 1.42 96 1011.9
20260506083545 14 128 0.0 6.4 0.28 1.85 1.42 96 1011.9
20260506083045 14 125 0.0 6.4 0.33 1.85 1.42 96 1011.9
20260506082544 14 114 0.0 0.0 0.33 1.83 1.42 96 1012.0
20260506082044 14 106 0.0 1.6 0.38 1.83 1.42 96 1012.0
20260506081544 14 103 0.0 0.0 0.41 1.83 1.40 96 1012.0
20260506081044 14 94 0.0 0.0 0.36 1.78 1.37 96 1011.9
20260506080544 14 94 0.0 0.0 0.33 1.75 1.32 96 1011.8
20260506073043 14 81 0.0 0.0 0.33 1.55 1.12 96 1011.8
20260506072541 14 81 0.0 0.0 0.33 1.45 1.07 96 1011.8
20260506072042 14 80 0.0 0.0 0.33 1.42 1.02 95 1011.8
20260506071540 14 80 0.0 0.0 0.30 1.42 0.99 95 1011.8
20260506071042 14 80 0.0 0.0 0.30 1.40 0.99 95 1011.8
20260506070541 14 102 0.0 0.0 0.30 1.40 0.99 95 1011.8
20260506062039 14 105 0.0 0.0 0.71 1.12 0.71 95 1011.8
20260506061554 14 106 0.0 1.6 0.69 1.09 0.69 94 1011.8
20260506061039 14 101 0.0 1.6 0.69 1.09 0.69 94 1011.7
20260506060538 14 27 0.0 1.6 0.69 1.09 0.69 94 1011.6
20260506051034 14 354 0.0 0.0 0.00 0.43 0.00 93 1011.2
20260506050534 14 354 0.0 0.0 0.00 0.43 0.00 93 1011.3
20260506045033 14 354 0.0 0.0 0.00 0.43 0.00 93 1011.5
20260506044534 14 354 0.0 0.0 0.00 0.43 0.00 93 1011.4
20260506044032 14 338 0.0 0.0 0.00 0.43 0.00 93 1011.6
20260506043532 14 338 0.0 0.0 0.00 0.43 0.00 93 1011.6
20260506043034 14 338 0.0 0.0 0.00 0.43 0.00 93 1011.6
20260506042532 13 338 0.0 0.0 0.00 0.43 0.00 93 1011.5
20260506042033 13 338 0.0 0.0 0.00 0.43 0.00 92 1011.6
20260506041531 13 338 0.0 0.0 0.00 0.43 0.00 92 1011.5
20260506041034 14 338 0.0 1.6 0.00 0.43 0.00 92 1011.3
20260506040534 14 338 0.0 1.6 0.00 0.43 0.00 92 1011.4
20260506040030 14 338 0.0 0.0 0.00 0.43 0.00 92 1011.6
20260506035531 14 338 0.0 1.6 0.00 0.43 0.00 92 1011.6
20260506035029 14 319 0.0 1.6 0.00 0.43 0.00 93 1011.7
20260506034529 13 65 0.0 0.0 0.00 0.43 0.00 93 1011.7
20260506034030 13 65 0.0 0.0 0.00 0.43 0.00 92 1011.8
20260506033529 14 65 0.0 0.0 0.00 0.43 0.00 92 1011.8
20260506033027 14 65 0.0 0.0 0.00 0.43 0.00 92 1011.9
20260506032526 14 65 0.0 0.0 0.00 0.43 0.00 92 1011.8
20260506032026 14 65 0.0 1.6 0.00 0.43 0.00 92 1012.0
20260506031526 14 65 0.0 1.6 0.00 0.43 0.00 92 1011.9
20260506031025 14 65 0.0 0.0 0.00 0.43 0.00 92 1012.0
20260506030529 14 65 0.0 0.0 0.00 0.43 0.00 92 1012.1
20260506030024 14 65 0.0 0.0 0.00 0.43 0.00 92 1012.1
20260506025526 14 65 0.0 0.0 0.00 0.43 0.00 92 1012.0
20260506025022 14 65 0.0 0.0 0.00 0.43 0.00 92 1012.0
20260506024520 14 65 0.0 0.0 0.00 0.43 0.00 92 1012.1
20260506024020 14 65 0.0 0.0 0.00 0.43 0.00 92 1012.1
20260506023520 14 65 0.0 0.0 0.00 0.43 0.00 92 1012.2
20260506023020 14 65 0.0 0.0 0.00 0.43 0.00 92 1012.3
20260506022517 14 65 0.0 0.0 0.00 0.43 0.00 92 1012.4
20260506022017 14 65 0.0 0.0 0.00 0.43 0.00 92 1012.3
20260506021516 14 61 0.0 0.0 0.00 0.43 0.00 92 1012.3
20260506021016 14 60 0.0 0.0 0.00 0.43 0.00 92 1012.3
20260506020515 14 85 0.0 0.0 0.00 0.43 0.00 92 1012.4
20260506020030 14 85 0.0 0.0 0.00 0.43 0.00 92 1012.4
20260506015516 14 85 0.0 0.0 0.00 0.43 0.00 92 1012.5
20260506015018 14 85 0.0 0.0 0.00 0.43 0.00 92 1012.4
20260506014515 14 85 0.0 0.0 0.00 0.43 0.00 92 1012.5
20260506014015 14 85 0.0 0.0 0.00 0.43 0.00 91 1012.5
20260506013520 14 85 0.0 0.0 0.00 0.43 0.00 91 1012.5
20260506013012 14 85 0.0 0.0 0.00 0.43 0.00 91 1012.6
20260506012511 14 85 0.0 0.0 0.00 0.43 0.00 91 1012.4
20260506012009 14 85 0.0 0.0 0.00 0.43 0.00 91 1012.5
20260506011507 14 84 0.0 0.0 0.00 0.43 0.00 91 1012.5
20260506011007 14 84 0.0 0.0 0.00 0.43 0.00 91 1012.4
20260506010505 14 103 0.0 0.0 0.00 0.43 0.00 91 1012.4
20260506010005 14 103 0.0 0.0 0.00 0.43 0.00 91 1012.4
20260506005507 14 103 0.0 0.0 0.00 0.43 0.00 91 1012.4
20260506005004 14 117 0.0 4.8 0.00 0.43 0.00 91 1012.3
20260506004514 14 311 0.0 4.8 0.00 0.43 0.00 92 1012.4
20260506004004 14 143 0.0 0.0 0.00 0.43 0.00 91 1012.3
20260506003504 14 143 0.0 0.0 0.00 0.43 0.00 91 1012.2
20260506003004 14 143 0.0 0.0 0.00 0.43 0.00 91 1012.3
20260506002507 14 143 0.0 0.0 0.00 0.43 0.00 91 1012.3
20260506002003 14 143 0.0 0.0 0.00 0.43 0.00 91 1012.3
20260506001503 14 143 0.0 1.6 0.00 0.43 0.00 91 1012.3
20260506001002 14 143 0.0 1.6 0.00 0.43 0.00 91 1012.3
20260506000501 14 229 0.0 0.0 0.00 0.43 0.00 91 1012.4
20260506000000 14 165 0.0 0.0 0.00 0.43 0.00 91 1012.5
20260505235501 14 165 0.0 0.0 0.00 0.43 0.00 91 1012.5
20260505235101 14 165 0.0 0.0 0.00 0.43 0.00 91 1012.6
20260505234616 14 165 0.0 0.0 0.00 0.43 0.00 91 1012.7
20260505234059 14 162 0.0 0.0 0.00 0.43 0.00 91 1012.7
20260505233600 14 162 0.0 0.0 0.00 0.43 0.00 90 1012.7
20260505233059 14 162 0.0 0.0 0.00 0.43 0.00 90 1012.8
20260505232558 14 162 0.0 1.6 0.00 0.43 0.00 91 1012.8
20260505232057 13 118 0.0 1.6 0.00 0.43 0.00 91 1012.8
20260505231559 13 168 0.0 1.6 0.00 0.43 0.00 92 1012.8
20260505231055 13 129 0.0 1.6 0.00 0.43 0.00 92 1012.9
20260505230554 13 82 0.0 1.6 0.00 0.43 0.00 93 1012.9
20260505230055 13 82 0.0 0.0 0.00 0.43 0.00 93 1012.9
20260505225554 13 82 0.0 0.0 0.00 0.43 0.00 93 1012.9
20260505225053 13 82 0.0 0.0 0.00 0.43 0.00 93 1012.8
20260505224554 13 82 0.0 0.0 0.00 0.43 0.00 93 1013.0
20260505224057 13 82 0.0 0.0 0.00 0.43 0.00 94 1012.9
20260505223551 13 82 0.0 4.8 0.00 0.43 0.00 94 1013.1
20260505223052 13 82 0.0 4.8 0.00 0.43 0.00 94 1013.0
20260505222550 13 101 0.0 0.0 0.00 0.43 0.00 95 1013.0
20260505222052 13 101 0.0 1.6 0.00 0.43 0.00 95 1013.0
20260505221557 13 101 0.0 1.6 0.00 0.43 0.00 95 1013.0
20260505221049 13 98 0.0 0.0 0.00 0.43 0.00 95 1013.1
20260505220549 13 98 0.0 0.0 0.00 0.43 0.00 95 1013.2
20260505220103 13 98 0.0 0.0 0.00 0.43 0.00 95 1013.2